www.pogodaiklimat.ru

Погода и климат >> Архив погоды >> Россия >> Якутия >> Тонгулах


ПОГОДА в Тонгулахе

  • Прогноз погоды в Тонгулахе
  • Монитор погоды в Тонгулахе
  • Климат города

АРХИВ ПОГОДЫ в Тонгулахе

Время (UTC), дата Ветер
(напр.,м/с)
 
Видим.   Явления Облачность Т
(С)
Тd
(С)
f
(%)
Тe
(С)
Тes
(С)
Комфортность P
(гПа)
Po
(гПа)
Тmin
(С)
Tmax
(С)
R
(мм)
R24
(мм)
S
(см)
06 12.08 штиль 0 50 км 8/8 600 м
[Cu med, cong]
+28.1 +15.4 46 +31 +33 душно 1009.7 987.4
09 12.08 СЗ 2 50 км 4/0
[Ci fib]
+27.9 +20.2 63 +34 +36 очень
душно
1010.5 988.1
12 12.08 штиль 0 50 км 4/0
[Ci fib]
+21.3 +17.2 77 +25 +25 комфорт 1012.3 989.3 +29.6
15 12.08 штиль 0 20 км ясно +14.5 +13.6 94 +14 +14 1014.0 990.5
18 12.08 штиль 0 20 км ясно +13.3 +12.7 96 +13 +13 1014.8 991.2
21 12.08 штиль 0 20 км дым ясно +7.5 +7.3 99 +6 +7 1016.9 992.6
00 13.08 штиль 0 20 км дым ясно +17.7 +14.2 80 +18 +24 1016.9 993.5 +7.4
03 13.08 СЗ 1 20 км дым 4/0
[Ci fib]
+25.3 +14.2 50 +28 +38 жарко 1015.6 992.8
06 13.08 С 1 20 км дым 6/0
[Ci fib]
+27.8 +14.6 44 +39 +47 очень
душно
1014.5 992.0
09 13.08 штиль 0 20 км дым 10/0
[Cs]
+27.5 +15.6 48 +30 +33 жарко 1014.0 991.5
12 13.08 штиль 0 20 км дым 8/0
[Ci fib]
+20.3 +17.5 84 +23 +23 комфорт 1014.3 991.2 +28.4
15 13.08 штиль 0 10 км дым 3/0
[Ci fib]
+13.7 +12.2 91 +13 +13 1015.1 991.5
18 13.08 штиль 0 10 км дым ясно +12.3 +11.5 95 +12 +12 1015.4 991.7
21 13.08 штиль 0 20 км дым ясно +7.2 +7.0 99 +6 +6 1015.5 991.3
00 14.08 штиль 0 20 км дым ясно +17.1 +13.6 80 +17 +24 1014.1 990.8 +7.4
03 14.08 Ю 3 20 км дым ясно +28.5 +15.9 46 +32 +40 душно 1011.7 989.3
06 14.08 Ю 3 50 км 4/4 1000 м
[Cu med, cong]
+31.4 +15.1 37 +34 +37 душно 1009.8 987.7
09 14.08 Ю 3 50 км 3/3 600 м
[Cu med, cong]
+31.8 +15.4 37 +34 +35 душно 1008.2 986.5
12 14.08 ЮВ 1 50 км 10/0
[Ci fib]
+26.3 +16.1 53 +30 +30 душно 1008.8 986.3 +32.6
15 14.08 штиль 0 20 км ясно +19.3 +15.4 78 +21 +21 комфорт 1009.5 986.5
18 14.08 штиль 0 20 км ясно +16.8 +14.0 84 +17 +17 1010.0 986.7
21 14.08 штиль 0 50 км ясно +17.8 +15.0 84 +18 +18 1009.5 985.4
00 15.08 штиль 0 50 км 6/0
[Ci fib]
+25.0 +18.7 68 +30 +35 душно 1009.0 985.4 +16.7
03 15.08 штиль 0 50 км 6/0
[Ci fib]
+32.6 +16.5 38 +36 +47 очень
душно
1007.6 985.6
06 15.08 штиль 0 50 км 6/0
[Ac trans]
+34.8 +14.0 29 +36 +42 душно 1006.5 984.6
09 15.08 штиль 0 50 км 8/0
[Ac trans]
+29.6 +17.7 49 +34 +35 очень
душно
1006.9 984.7
12 15.08 штиль 0 50 км {дождь} 10/0
[Ac As]
+22.4 +19.3 83 +28 +28 душно 1009.6 986.7 +35.0 0.5
15 15.08 штиль 0 20 км слабый дождь 10/0
[Ac As Ci fib]
+19.6 +18.2 92 +22 +22 комфорт 1010.8 987.9
18 15.08 штиль 0 20 км дождь 10/0
[Ac As]
+14.0 +13.3 96 +14 +14 1012.4 988.9
21 15.08 штиль 0 50 км {дождь} 10/0
[As op]
+16.3 +15.4 94 +16 +16 1014.9 991.5
00 16.08 З 3 50 км {дождь} 10/0
[Ac As]
+14.7 +12.9 89 +14 +15 1016.4 992.7 +13.9 21
03 16.08 С 3 50 км 8/8 1000 м
[Cu med, cong]
+19.3 +13.0 67 +21 +22 комфорт 1016.7 993.4
06 16.08 С 3 50 км 10/10 600 м
[Cu med, cong]
+19.0 +13.0 68 +20 +20 1017.1 993.8
09 16.08 СВ 1 50 км 8/8 1000 м
[Sc]
+18.5 +13.0 70 +20 +21 1017.3 994.0
12 16.08 штиль 0 50 км 10/10
[Sc]
+14.5 +13.2 92 +14 +14 1018.0 994.3 +21.0
15 16.08 штиль 0 20 км 10/10 600 м
[Sc]
+13.9 +11.1 83 +14 +14 1017.8 994.1
18 16.08 штиль 0 20 км 10/10
[Sc]
+13.2 +11.5 89 +13 +13 1017.4 993.7
21 16.08 штиль 0 50 км 10/8 1000 м
[Sc Ac trans]
+11.1 +9.0 87 +10 +10 1017.6 993.6
00 17.08 штиль 0 50 км 10/0
[Ac As]
+11.6 +9.4 86 +11 +13 1017.2 993.2 +1.1
03 17.08 штиль 0 20 км слабый дождь 10/0
[As op]
+11.1 +10.2 94 +10 +13 1016.9 993.0
06 17.08 штиль 0 50 км {дождь} 10/10 600 м
[Sc]
+11.3 +9.3 87 +11 +11 1016.5 992.6
09 17.08 С 1 50 км 10/10 600 м
[Sc]
+12.2 +9.0 81 +12 +12 1016.4 992.5
12 17.08 штиль 0 50 км 3/3 1000 м
[Sc]
+9.1 +8.9 99 +8 +8 1016.2 992.2 +12.8 2
15 17.08 штиль 0 20 км ясно +1.9 +1.6 98 +1 +1 1016.6 991.9
18 17.08 штиль 0 20 км ясно +1.0 +0.7 98 -0 -0 1016.2 991.5
21 17.08 штиль 0 50 км 10/0
[As op]
+1.0 +0.7 98 -0 -0 1015.9 991.2
00 18.08 штиль 0 20 км дым 10/0
[As op]
+4.6 +4.4 99 +3 +5 1014.4 989.9 +0.8
03 18.08 штиль 0 50 км 10/0
[Ac und]
+10.9 +8.5 85 +10 +14 1012.6 988.7
06 18.08 штиль 0 50 км 10/0
[As op]
+15.6 +9.2 66 +15 +17 1010.7 987.4
09 18.08 штиль 0 50 км 10/0
[Ac As]
+15.7 +11.4 76 +16 +16 1009.8 986.5
12 18.08 штиль 0 50 км 10/0
[Ac As]
+13.8 +12.1 89 +13 +13 1010.1 986.6 +16.8
15 18.08 штиль 0 20 км 10/0
[As op]
+12.1 +10.4 89 +12 +12 1010.1 986.4
18 18.08 штиль 0 20 км 10/0
[As op]
+11.5 +10.5 94 +11 +11 1009.8 986.1
21 18.08 штиль 0 50 км 10/0
[As op]
+10.0 +9.6 97 +9 +9 1010.9 987.1
00 19.08 штиль 0 50 км 8/0
[Ac trans]
+12.8 +10.5 86 +12 +15 1011.0 987.4 +9.8

 

Местоположение метеостанции Тонгулах (Якутия, Россия): широта 61.92 долгота 124.50 высота над уровнем моря 199 м.

В архиве по умолчанию представлена погода в Тонгулахе за последнюю неделю. Архивные данные за месяц целиком и за предыдущие месяцы, начиная с января 2011 года, Вы можете получить, выбрав интересующий диапазон дат из раскрывающегося списка и нажав кнопку "Ввод!".

Внимание! Время в таблицах - всемирное. Для получения местного времени необходимо прибавить поправку, которая в Тонгулахе равна 9 ч.

Смотрите также архив погоды в соседних городах и на ближайших метеорологических станциях:

Погода в Исите (Якутия, Россия) (130 км)
Погода в Бердигестяхе (Якутия, Россия) (136 км)
Погода в Хатырык-Хомо (Якутия, Россия) (226 км)
Погода в Покровске (Якутия, Россия) (247 км)
Погода в Вилюйске (Якутия, Россия) (253 км)
Погода в Якутске (Якутия, Россия) (267 км)
Погода в Сангаре (Якутия, Россия) (269 км)
Погода в Олекминске (Якутия, Россия) (277 км)
Погода в Верхневилюйске (Якутия, Россия) (278 км)
Погода в Намцах (Якутия, Россия) (278 км)

Пояснения к столбцам:

Ветер - указаны скорость ветра в м/с - средняя за 10 мин, порывы в срок и между сроками (в фигурных скобках) и направление, откуда дует ветер: С - северный, СВ - северо-восточный, В - восточный, ЮВ - юго-восточный, Ю - южный, ЮЗ - юго-западный, З - западный, СЗ - северо-западный.
Видимость - горизонтальная дальность видимости в метрах или километрах. При видимости от 1 до 10 км при отсутствии осадков обычно наблюдается дымка, при ухудшении видимости до 1 км и менее - туман. В сухую погоду видимость может ухудшаться дымом, пылью или мглою.
Явления - указаны атмосферные явления, наблюдавшиеся в срок или в последний час перед сроком; фигурными скобками обозначены явления, наблюдавшиеся между сроками (за 1-3 часа до срока); квадратными скобками обозначены град или гололедные отложения с указанием их диаметра в мм.
Облачность - указаны через наклонную черту общая и нижняя облачность в баллах и высота нижней границы облаков в метрах; квадратными скобками обозначены формы облаков: Ci - перистые, Cs - перисто-слоистые, Cc - перисто-кучевые, Ac - высококучевые, As - высокослоистые, Sc - слоисто-кучевые, Ns - слоисто-дождевые, Cu - кучевые, Cb - кучево-дождевые. Подробнее классификацию облаков см. в Атласе облаков (PDF).
T - Температура воздуха - температура, измеренная на высоте 2 м над землей.
Td - Температура точки росы - температура, при понижении до которой содержащийся в воздухе водяной пар достигнет насыщения.
f - Относительная влажность воздуха - влажноcть воздуха, измеренная на высоте 2 м над землей.
Te - Эффективная температура - температура, которую ощущает одетый по сезону человек в тени. Характеристика душности погоды. При расчете учитывается влияние влажности воздуха и скорости ветра на теплоощущения человека.
Tes - Эффективная температура на солнце - температура, которую ощущает человек, с поправкой на солнечный нагрев. Характеристика знойности погоды. Зависит от высоты солнца над горизонтом, облачности и скорости ветра. Ночью, в пасмурную погоду, а также при ветре 12 м/с и более поправка равна нулю.
P - Атмосферное давление - приведенное к уровню моря атмосферное давление.
Po - Атмосферное давление - измеренное на уровне метеостанции атмосферное давление.
Tmin - Минимальная температура - минимум температуры воздуха на высоте 2 м над землей.
Tmax - Максимальная температура - максимум температуры воздуха на высоте 2 м над землей.
R - Количество осадков - Количество выпавших осадков за период времени, мм. При наведении курсора мыши на число - период времени, за который выпало указанное количество осадков.
R24 - Количество осадков - Количество выпавших осадков за 24 часа, мм.
S - Снежный покров - Высота снежного покрова, см. При наведении курсора мыши на число - состояние снежного покрова и степень покрытия местности в баллах.